map of DZO home
DZO - Airport
Location
City:  Durazno, Durazno, Uruguay
Name:Santa Bernardina International Airport
ICAO:SUDU
IATA:DZO

Details
Type:Airport (Aerodrome, Airfield)
Use:Public/Civil, Military, International (customs port of entry)
Latitude:3321'32"S (-33.358866)
Longitude:5629'57"W (-56.499171)
Datum:WGS 1984
Elevation:305 ft (93 m)
Variation:11.49W (WMM2015v2 magnetic declination)
-0.15 annual change
Runways:2
Longest:7477 × 148 ft (2279 × 45 m), paved

Time
Time Zone:UTC-3
Local Time:

Weather
METAR:SUDU 041400Z 08007KT 9999 BKN023 23/13 Q1024
TAF:SUDU 041145Z 0412/0512 10005KT CAVOK TX26/0418Z TN13/0509Z PROB40
TEMPO 0406/0410 5000 BR NSC

Related Locations
Nearby:
Farthest:CJU: 12271 mi / 19748 km
Jeju (Cheju) [Intl], KR

Find:

   beyond  
but within

Other Information
Maps:
NOTAMs:
Links:
Sources:

  
  • flag of Uruguay
  • flag of Durazno
  

Sectional Chart

Flight Planning
at skyvector.com

Satellite Image

Google Maps Satellite view

 

Copyright © 2004-2019 Karl L. Swartz. All rights reserved.
The Great Circle Mapper name and logo are trademarks of the Great Circle Mapper.
All other trademarks mentioned herein belong to their respective owners.
Please see credits for attibutions and further copyright information.

  Follow gcmap on Facebook Follow gcmap on Twitter GCmap on LinkedIn

hCard Microformat

Geo Microformat